{"data":{"norad_id":42808,"epoch":"2026-05-25T02:23:30.929856Z","epoch_age_seconds":69655,"freshness":"FRESH","line1":"1 42808U 17039F   26145.09966354  .00000065  00000+0  16183-4 0  9995","line2":"2 42808  86.3983   3.2456 0002257  83.9218 276.2235 14.34218071466664","mean_motion":14.34218071,"eccentricity":0.0002257,"inclination_deg":86.3983,"raan_deg":3.2456,"arg_perigee_deg":83.9218,"mean_anomaly_deg":276.2235,"bstar":1.6183e-5,"rev_number":46666,"period_min":100.40314155266,"perigee_km":776.05102187765,"apogee_km":779.28115139096,"semimajor_km":7155.8030866343,"source":"CELESTRAK","updated_at":"2026-05-25T13:38:14.800749Z"}}